| time (UTC) | temp F | wind direction | speed MPH | gust MPH | rain 1hr in | rain 24hr in | rain mn in | humidity % | barometer mb |
| 20260505193101 | 70 | 250 | 7.0 | 21.0 | 0.00 | 0.00 | 0.00 | 57 | 1001.6 |
| 20260505192101 | 70 | 232 | 10.0 | 26.0 | 0.00 | 0.00 | 0.00 | 56 | 1001.6 |
| 20260505191600 | 71 | 219 | 8.0 | 26.0 | 0.00 | 0.00 | 0.00 | 55 | 1001.7 |
| 20260505191059 | 71 | 235 | 8.0 | 26.0 | 0.00 | 0.00 | 0.00 | 55 | 1001.5 |
| 20260505190602 | 71 | 287 | 8.0 | 27.0 | 0.00 | 0.00 | 0.00 | 54 | 1001.2 |
| 20260505184559 | 71 | 221 | 12.0 | 33.0 | 0.00 | 0.00 | 0.00 | 55 | 1001.3 |
| 20260505184100 | 70 | 214 | 12.0 | 31.0 | 0.00 | 0.00 | 0.00 | 58 | 1001.4 |
| 20260505183559 | 70 | 221 | 14.0 | 28.0 | 0.00 | 0.00 | 0.00 | 57 | 1001.1 |
| 20260505182559 | 70 | 235 | 15.0 | 32.0 | 0.00 | 0.00 | 0.00 | 56 | 1001.4 |
| 20260505182055 | 70 | 234 | 12.0 | 32.0 | 0.00 | 0.00 | 0.00 | 56 | 1001.3 |
| 20260505181556 | 69 | 225 | 10.0 | 23.0 | 0.00 | 0.00 | 0.00 | 58 | 1001.3 |
| 20260505181055 | 69 | 302 | 10.0 | 26.0 | 0.00 | 0.00 | 0.00 | 59 | 1001.3 |
| 20260505180556 | 69 | 225 | 10.0 | 26.0 | 0.00 | 0.00 | 0.00 | 59 | 1001.3 |
| 20260505180108 | 69 | 147 | 9.0 | 25.0 | 0.00 | 0.00 | 0.00 | 59 | 1001.1 |
| 20260505175556 | 69 | 196 | 10.0 | 25.0 | 0.00 | 0.00 | 0.00 | 62 | 1001.1 |
| 20260505175055 | 68 | 230 | 11.0 | 26.0 | 0.00 | 0.00 | 0.00 | 63 | 1001.3 |
| 20260505174054 | 67 | 231 | 11.0 | 26.0 | 0.00 | 0.00 | 0.00 | 65 | 1001.6 |
| 20260505173547 | 66 | 236 | 11.0 | 26.0 | 0.00 | 0.00 | 0.00 | 66 | 1001.6 |
| 20260505173041 | 66 | 203 | 11.0 | 25.0 | 0.00 | 0.00 | 0.00 | 66 | 1001.5 |
| 20260505172535 | 65 | 0 | 10.0 | 25.0 | 0.00 | 0.00 | 0.00 | 67 | 1001.6 |
| 20260505171523 | 64 | 251 | 16.0 | 26.0 | 0.00 | 0.00 | 0.00 | 68 | 1001.7 |
| 20260505170511 | 65 | 195 | 14.0 | 33.0 | 0.00 | 0.00 | 0.00 | 66 | 1001.7 |
| 20260505170006 | 65 | 193 | 14.0 | 33.0 | 0.00 | 0.00 | 0.00 | 66 | 1001.8 |
| 20260505165459 | 65 | 244 | 15.0 | 30.0 | 0.00 | 0.00 | 0.00 | 66 | 1001.5 |
| 20260505164953 | 65 | 188 | 15.0 | 27.0 | 0.00 | 0.00 | 0.00 | 66 | 1001.4 |
| 20260505163941 | 65 | 201 | 15.0 | 30.0 | 0.00 | 0.00 | 0.00 | 67 | 1001.5 |
| 20260505163435 | 65 | 220 | 15.0 | 30.0 | 0.00 | 0.00 | 0.00 | 67 | 1001.5 |
| 20260505162930 | 65 | 234 | 14.0 | 24.0 | 0.00 | 0.00 | 0.00 | 68 | 1001.3 |
| 20260505162423 | 65 | 175 | 13.0 | 28.0 | 0.00 | 0.00 | 0.00 | 66 | 1001.2 |
| 20260505161917 | 65 | 225 | 12.0 | 28.0 | 0.00 | 0.00 | 0.00 | 67 | 1001.0 |
| 20260505161411 | 65 | 217 | 11.0 | 22.0 | 0.00 | 0.00 | 0.00 | 67 | 1001.2 |
| 20260505160905 | 65 | 199 | 12.0 | 22.0 | 0.00 | 0.00 | 0.00 | 67 | 1001.2 |
| 20260505160359 | 65 | 240 | 13.0 | 21.0 | 0.00 | 0.00 | 0.00 | 66 | 1001.0 |
| 20260505153323 | 68 | 219 | 14.0 | 26.0 | 0.00 | 0.00 | 0.00 | 64 | 1001.1 |
| 20260505152817 | 67 | 198 | 16.0 | 28.0 | 0.00 | 0.00 | 0.00 | 65 | 1001.2 |
| 20260505152311 | 66 | 221 | 17.0 | 28.0 | 0.00 | 0.00 | 0.00 | 65 | 1001.1 |
| 20260505151805 | 66 | 201 | 16.0 | 25.0 | 0.00 | 0.00 | 0.00 | 67 | 1001.0 |
| 20260505151304 | 66 | 198 | 17.0 | 30.0 | 0.00 | 0.00 | 0.00 | 65 | 1000.9 |
| 20260505150806 | 66 | 231 | 16.0 | 30.0 | 0.00 | 0.00 | 0.00 | 66 | 1000.8 |
| 20260505150303 | 64 | 211 | 13.0 | 20.0 | 0.00 | 0.00 | 0.00 | 70 | 1000.8 |
| 20260505130254 | 57 | 222 | 10.0 | 16.0 | 0.00 | 0.00 | 0.00 | 83 | 1000.3 |
| 20260505124751 | 58 | 0 | 11.0 | 18.0 | 0.00 | 0.00 | 0.00 | 82 | 1000.4 |
| 20260505124251 | 58 | 221 | 11.0 | 18.0 | 0.00 | 0.00 | 0.00 | 83 | 1000.4 |
| 20260505123751 | 57 | 205 | 11.0 | 19.0 | 0.00 | 0.00 | 0.00 | 86 | 1000.5 |
| 20260505123250 | 55 | 219 | 10.0 | 19.0 | 0.00 | 0.00 | 0.00 | 86 | 1000.5 |
| 20260505122753 | 56 | 213 | 9.0 | 18.0 | 0.00 | 0.00 | 0.00 | 81 | 1000.6 |
| 20260505122251 | 58 | 0 | 10.0 | 18.0 | 0.00 | 0.00 | 0.00 | 79 | 1000.7 |
| 20260505121751 | 59 | 214 | 10.0 | 19.0 | 0.00 | 0.00 | 0.00 | 80 | 1000.6 |
| 20260505121251 | 59 | 207 | 10.0 | 19.0 | 0.00 | 0.00 | 0.00 | 81 | 1000.6 |
| 20260505120247 | 58 | 209 | 12.0 | 18.0 | 0.00 | 0.00 | 0.00 | 81 | 1000.6 |
| 20260505115747 | 58 | 218 | 12.0 | 18.0 | 0.00 | 0.00 | 0.00 | 83 | 1000.6 |
| 20260505115247 | 58 | 198 | 11.0 | 16.0 | 0.00 | 0.00 | 0.00 | 83 | 1000.5 |
| 20260505114747 | 58 | 229 | 10.0 | 16.0 | 0.00 | 0.00 | 0.00 | 83 | 1000.4 |
| 20260505113747 | 58 | 0 | 10.0 | 16.0 | 0.00 | 0.00 | 0.00 | 87 | 1000.5 |
| 20260505113248 | 56 | 211 | 10.0 | 16.0 | 0.00 | 0.00 | 0.00 | 88 | 1000.5 |
| 20260505112747 | 55 | 207 | 10.0 | 17.0 | 0.00 | 0.00 | 0.00 | 87 | 1000.6 |
| 20260505112248 | 55 | 181 | 9.0 | 17.0 | 0.00 | 0.00 | 0.00 | 89 | 1000.5 |
| 20260505111743 | 55 | 208 | 10.0 | 15.0 | 0.00 | 0.00 | 0.00 | 87 | 1000.5 |
| 20260505111244 | 56 | 200 | 10.0 | 15.0 | 0.00 | 0.00 | 0.00 | 89 | 1000.5 |
| 20260505110743 | 55 | 198 | 8.0 | 12.0 | 0.00 | 0.00 | 0.00 | 88 | 1000.4 |
| 20260505110243 | 55 | 213 | 8.0 | 11.0 | 0.00 | 0.00 | 0.00 | 87 | 1000.4 |
| 20260505102145 | 0 | 0.0 | 0.0 | 0.00 | 0.00 | 0.00 | 1000.4 | ||
| 20260505101551 | 0 | 0.0 | 0.0 | 0.00 | 0.00 | 0.00 | 1000.0 | ||
| 20260505101049 | 0 | 0.0 | 0.0 | 0.00 | 0.00 | 0.00 | 999.9 | ||
| 20260505100546 | 0 | 0.0 | 0.0 | 0.00 | 0.00 | 0.00 | 1000.1 | ||
| 20260505100047 | 0 | 0.0 | 0.0 | 0.00 | 0.00 | 0.00 | 1000.1 | ||
| 20260505095541 | 0 | 0.0 | 0.0 | 0.00 | 0.00 | 0.00 | 1000.1 | ||
| 20260505094949 | 0 | 0.0 | 0.0 | 0.00 | 0.00 | 0.00 | 1000.1 | ||
| 20260505094446 | 0 | 0.0 | 0.0 | 0.00 | 0.00 | 0.00 | 1000.3 | ||
| 20260505093945 | 0 | 0.0 | 0.0 | 0.00 | 0.00 | 0.00 | 1000.2 | ||
| 20260505093435 | 0 | 0.0 | 0.0 | 0.00 | 0.00 | 0.00 | 1000.3 | ||
| 20260505092844 | 0 | 0.0 | 0.0 | 0.00 | 0.00 | 0.00 | 1000.2 | ||
| 20260505092343 | 0 | 0.0 | 0.0 | 0.00 | 0.00 | 0.00 | 1000.2 | ||
| 20260505091751 | 0 | 0.0 | 0.0 | 0.00 | 0.00 | 0.00 | 1000.1 | ||
| 20260505091245 | 0 | 0.0 | 0.0 | 0.00 | 0.00 | 0.00 | 1000.1 | ||
| 20260505090743 | 0 | 0.0 | 0.0 | 0.00 | 0.00 | 0.00 | 1000.2 | ||
| 20260505085636 | 0 | 0.0 | 0.0 | 0.00 | 0.00 | 0.00 | 1000.4 | ||
| 20260505085041 | 57 | 205 | 10.0 | 15.0 | 0.00 | 0.00 | 0.00 | 75 | 1000.5 |
| 20260505084451 | 57 | 205 | 10.0 | 15.0 | 0.00 | 0.00 | 0.00 | 75 | 1000.7 |
| 20260505083935 | 57 | 205 | 10.0 | 15.0 | 0.00 | 0.00 | 0.00 | 75 | 1000.7 |
| 20260505082932 | 57 | 194 | 11.0 | 16.0 | 0.00 | 0.00 | 0.00 | 76 | 1000.7 |
| 20260505082433 | 57 | 197 | 11.0 | 16.0 | 0.00 | 0.00 | 0.00 | 76 | 1000.8 |
| 20260505081933 | 56 | 227 | 10.0 | 16.0 | 0.00 | 0.00 | 0.00 | 78 | 1000.8 |
| 20260505081432 | 56 | 238 | 10.0 | 15.0 | 0.00 | 0.00 | 0.00 | 80 | 1000.8 |
| 20260505080933 | 56 | 187 | 11.0 | 16.0 | 0.00 | 0.00 | 0.00 | 81 | 1000.9 |
| 20260505080432 | 56 | 224 | 10.0 | 16.0 | 0.00 | 0.00 | 0.00 | 82 | 1000.9 |
| 20260505075933 | 56 | 215 | 10.0 | 16.0 | 0.00 | 0.00 | 0.00 | 80 | 1001.0 |
| 20260505075433 | 56 | 0 | 9.0 | 17.0 | 0.00 | 0.00 | 0.00 | 82 | 1000.9 |
| 20260505074926 | 56 | 0 | 10.0 | 17.0 | 0.00 | 0.00 | 0.00 | 82 | 1000.9 |
| 20260505074421 | 55 | 219 | 12.0 | 19.0 | 0.00 | 0.00 | 0.00 | 83 | 1001.0 |
| 20260505073914 | 55 | 191 | 13.0 | 19.0 | 0.00 | 0.00 | 0.00 | 81 | 1000.9 |
| 20260505072357 | 55 | 214 | 11.0 | 17.0 | 0.00 | 0.00 | 0.00 | 79 | 1000.8 |
| 20260505071850 | 54 | 209 | 11.0 | 16.0 | 0.00 | 0.00 | 0.00 | 77 | 1000.9 |
| 20260505071345 | 54 | 205 | 11.0 | 17.0 | 0.00 | 0.00 | 0.00 | 75 | 1000.9 |
| 20260505070838 | 54 | 0 | 10.0 | 15.0 | 0.00 | 0.00 | 0.00 | 75 | 1000.8 |
| 20260505070332 | 54 | 198 | 10.0 | 15.0 | 0.00 | 0.00 | 0.00 | 73 | 1000.8 |
| 20260505065320 | 57 | 211 | 10.0 | 15.0 | 0.00 | 0.00 | 0.00 | 65 | 1000.6 |
| 20260505064308 | 57 | 224 | 8.0 | 11.0 | 0.00 | 0.00 | 0.00 | 64 | 1000.5 |
| 20260505063802 | 57 | 232 | 8.0 | 11.0 | 0.00 | 0.00 | 0.00 | 64 | 1000.5 |
| 20260505063256 | 57 | 221 | 8.0 | 12.0 | 0.00 | 0.00 | 0.00 | 64 | 1000.5 |
| 20260505062751 | 58 | 202 | 8.0 | 12.0 | 0.00 | 0.00 | 0.00 | 63 | 1000.6 |
| 20260505062244 | 57 | 192 | 7.0 | 11.0 | 0.00 | 0.00 | 0.00 | 64 | 1000.6 |
| 20260505060726 | 57 | 206 | 7.0 | 10.0 | 0.00 | 0.00 | 0.00 | 64 | 1000.6 |
| 20260505060220 | 57 | 202 | 8.0 | 12.0 | 0.00 | 0.00 | 0.00 | 63 | 1000.6 |
| 20260505055714 | 58 | 192 | 8.0 | 12.0 | 0.00 | 0.00 | 0.00 | 63 | 1000.7 |
| 20260505055209 | 58 | 215 | 7.0 | 10.0 | 0.00 | 0.01 | 0.00 | 63 | 1000.7 |
| 20260505054702 | 58 | 205 | 6.0 | 8.0 | 0.00 | 0.01 | 0.00 | 63 | 1000.8 |
| 20260505054156 | 57 | 192 | 6.0 | 9.0 | 0.00 | 0.01 | 0.00 | 63 | 1000.7 |
| 20260505053650 | 58 | 209 | 6.0 | 9.0 | 0.00 | 0.01 | 0.00 | 63 | 1000.7 |
| 20260505053145 | 57 | 209 | 5.0 | 8.0 | 0.00 | 0.01 | 0.00 | 64 | 1000.8 |
| 20260505052638 | 57 | 205 | 5.0 | 8.0 | 0.00 | 0.01 | 0.00 | 64 | 1000.8 |
| 20260505052135 | 57 | 182 | 5.0 | 8.0 | 0.00 | 0.01 | 0.00 | 64 | 1000.9 |
| 20260505051634 | 56 | 191 | 4.0 | 8.0 | 0.00 | 0.01 | 0.00 | 66 | 1000.9 |
| 20260505051135 | 55 | 225 | 3.0 | 5.0 | 0.00 | 0.01 | 0.00 | 70 | 1000.9 |
| 20260505050130 | 54 | 213 | 2.0 | 4.0 | 0.00 | 0.01 | 0.00 | 73 | 1000.9 |
| 20260505041619 | 55 | 216 | 4.0 | 5.0 | 0.00 | 0.01 | 0.00 | 71 | 1001.5 |
| 20260505041119 | 56 | 211 | 3.0 | 5.0 | 0.00 | 0.01 | 0.00 | 70 | 1001.6 |
| 20260505040619 | 57 | 211 | 3.0 | 6.0 | 0.00 | 0.01 | 0.00 | 67 | 1001.5 |
| 20260505040118 | 57 | 227 | 3.0 | 6.0 | 0.00 | 0.01 | 0.00 | 65 | 1001.6 |
| 20260505035114 | 56 | 225 | 3.0 | 6.0 | 0.00 | 0.01 | 0.01 | 68 | 1001.5 |
| 20260505034613 | 57 | 244 | 3.0 | 5.0 | 0.00 | 0.01 | 0.01 | 67 | 1001.5 |
| 20260505034112 | 58 | 200 | 4.0 | 8.0 | 0.00 | 0.01 | 0.01 | 63 | 1001.6 |
| 20260505033607 | 60 | 193 | 5.0 | 9.0 | 0.00 | 0.01 | 0.01 | 58 | 1001.5 |
| 20260505033102 | 61 | 217 | 5.0 | 10.0 | 0.00 | 0.01 | 0.01 | 57 | 1001.5 |
| 20260505032554 | 61 | 214 | 5.0 | 10.0 | 0.00 | 0.01 | 0.01 | 58 | 1001.6 |
| 20260505031046 | 60 | 177 | 5.0 | 10.0 | 0.00 | 0.01 | 0.01 | 58 | 1001.8 |
| 20260505030546 | 60 | 221 | 4.0 | 8.0 | 0.00 | 0.01 | 0.01 | 59 | 1001.8 |
| 20260505030047 | 60 | 211 | 5.0 | 9.0 | 0.00 | 0.01 | 0.01 | 60 | 1001.7 |
| 20260505025544 | 60 | 221 | 6.0 | 10.0 | 0.00 | 0.01 | 0.01 | 61 | 1001.8 |
| 20260505025044 | 59 | 197 | 7.0 | 10.0 | 0.00 | 0.01 | 0.01 | 62 | 1001.9 |
| 20260505024544 | 59 | 0 | 7.0 | 10.0 | 0.00 | 0.01 | 0.01 | 63 | 1001.9 |
| 20260505024044 | 59 | 193 | 7.0 | 10.0 | 0.00 | 0.01 | 0.01 | 62 | 1001.9 |
| 20260505023544 | 60 | 215 | 6.0 | 10.0 | 0.00 | 0.01 | 0.01 | 62 | 1001.9 |
| 20260505023044 | 59 | 0 | 6.0 | 9.0 | 0.00 | 0.01 | 0.01 | 62 | 1002.0 |
| 20260505022544 | 59 | 222 | 6.0 | 9.0 | 0.00 | 0.01 | 0.01 | 63 | 1001.9 |
| 20260505022045 | 59 | 232 | 7.0 | 9.0 | 0.00 | 0.01 | 0.01 | 63 | 1002.0 |
| 20260505021545 | 60 | 187 | 6.0 | 9.0 | 0.00 | 0.01 | 0.01 | 62 | 1002.0 |
| 20260505021044 | 60 | 194 | 6.0 | 10.0 | 0.00 | 0.01 | 0.01 | 62 | 1002.1 |
| 20260505020545 | 60 | 207 | 6.0 | 10.0 | 0.00 | 0.01 | 0.01 | 62 | 1002.2 |
| 20260505020045 | 60 | 231 | 5.0 | 9.0 | 0.00 | 0.01 | 0.01 | 63 | 1002.1 |
| 20260505015538 | 59 | 217 | 5.0 | 9.0 | 0.00 | 0.01 | 0.01 | 64 | 1002.1 |
| 20260505015038 | 59 | 216 | 5.0 | 10.0 | 0.00 | 0.01 | 0.01 | 66 | 1002.2 |
| 20260505014539 | 58 | 0 | 6.0 | 10.0 | 0.00 | 0.01 | 0.01 | 68 | 1002.2 |
| 20260505014039 | 57 | 237 | 5.0 | 8.0 | 0.00 | 0.01 | 0.01 | 71 | 1002.3 |
| 20260505013538 | 56 | 219 | 4.0 | 8.0 | 0.00 | 0.01 | 0.01 | 73 | 1002.2 |
| 20260505013038 | 56 | 201 | 4.0 | 6.0 | 0.00 | 0.01 | 0.01 | 73 | 1002.2 |
| 20260505012538 | 57 | 0 | 5.0 | 8.0 | 0.00 | 0.01 | 0.01 | 70 | 1002.3 |
| 20260505012038 | 58 | 196 | 6.0 | 9.0 | 0.00 | 0.01 | 0.01 | 68 | 1002.4 |
| 20260505011538 | 59 | 209 | 6.0 | 9.0 | 0.00 | 0.01 | 0.01 | 66 | 1002.4 |
| 20260505011038 | 60 | 227 | 6.0 | 10.0 | 0.00 | 0.01 | 0.01 | 64 | 1002.4 |
| 20260505010538 | 60 | 198 | 7.0 | 10.0 | 0.00 | 0.01 | 0.01 | 63 | 1002.4 |
| 20260505010034 | 60 | 225 | 7.0 | 12.0 | 0.00 | 0.01 | 0.01 | 63 | 1002.3 |
| 20260505005035 | 60 | 220 | 6.0 | 11.0 | 0.00 | 0.01 | 0.01 | 62 | 1002.2 |
| 20260505004535 | 61 | 218 | 7.0 | 10.0 | 0.00 | 0.01 | 0.01 | 62 | 1002.2 |
| 20260505003534 | 59 | 225 | 6.0 | 11.0 | 0.00 | 0.01 | 0.01 | 65 | 1002.2 |
| 20260505003034 | 58 | 230 | 6.0 | 8.0 | 0.00 | 0.01 | 0.01 | 67 | 1002.0 |
| 20260505002534 | 58 | 194 | 6.0 | 8.0 | 0.00 | 0.01 | 0.01 | 68 | 1002.1 |
| 20260505002036 | 58 | 0 | 6.0 | 8.0 | 0.00 | 0.01 | 0.01 | 69 | 1002.1 |
| 20260505001534 | 57 | 219 | 6.0 | 8.0 | 0.00 | 0.01 | 0.01 | 70 | 1002.1 |
| 20260505001034 | 57 | 0 | 6.0 | 8.0 | 0.00 | 0.01 | 0.01 | 71 | 1002.0 |
| 20260505000535 | 56 | 215 | 6.0 | 8.0 | 0.00 | 0.01 | 0.01 | 73 | 1002.0 |
| 20260505000035 | 55 | 0 | 5.0 | 8.0 | 0.00 | 0.01 | 0.01 | 75 | 1001.9 |
| 20260504235534 | 54 | 219 | 4.0 | 8.0 | 0.00 | 0.01 | 0.01 | 75 | 1001.9 |
| 20260504235035 | 55 | 192 | 4.0 | 6.0 | 0.00 | 0.01 | 0.01 | 74 | 1001.9 |
| 20260504234535 | 56 | 0 | 4.0 | 8.0 | 0.00 | 0.01 | 0.01 | 72 | 1001.8 |
| 20260504233534 | 57 | 216 | 6.0 | 12.0 | 0.00 | 0.01 | 0.01 | 69 | 1001.8 |
| 20260504233034 | 58 | 211 | 7.0 | 12.0 | 0.00 | 0.01 | 0.01 | 68 | 1001.9 |
| 20260504232535 | 59 | 0 | 8.0 | 11.0 | 0.00 | 0.01 | 0.01 | 66 | 1001.9 |
| 20260504232034 | 58 | 213 | 7.0 | 11.0 | 0.00 | 0.01 | 0.01 | 67 | 1002.0 |
| 20260504231535 | 58 | 221 | 5.0 | 10.0 | 0.00 | 0.01 | 0.01 | 66 | 1001.9 |
| 20260504231032 | 59 | 208 | 5.0 | 10.0 | 0.00 | 0.01 | 0.01 | 67 | 1001.9 |
| 20260504230532 | 58 | 197 | 7.0 | 11.0 | 0.00 | 0.01 | 0.01 | 68 | 1001.9 |
| 20260504230032 | 58 | 213 | 8.0 | 12.0 | 0.00 | 0.01 | 0.01 | 68 | 1001.9 |
| 20260504225033 | 58 | 201 | 9.0 | 14.0 | 0.00 | 0.01 | 0.01 | 67 | 1001.9 |
| 20260504224531 | 59 | 215 | 9.0 | 14.0 | 0.00 | 0.01 | 0.01 | 64 | 1002.0 |
| 20260504223522 | 60 | 233 | 10.0 | 16.0 | 0.00 | 0.01 | 0.01 | 62 | 1002.1 |
| 20260504223022 | 61 | 0 | 9.0 | 19.0 | 0.00 | 0.01 | 0.01 | 60 | 1002.2 |
| 20260504222521 | 62 | 237 | 10.0 | 19.0 | 0.00 | 0.01 | 0.01 | 59 | 1002.2 |
| 20260504222020 | 62 | 213 | 12.0 | 19.0 | 0.00 | 0.01 | 0.01 | 59 | 1002.2 |
| 20260504221518 | 62 | 209 | 12.0 | 20.0 | 0.00 | 0.01 | 0.01 | 58 | 1002.2 |
| 20260504220516 | 61 | 240 | 12.0 | 19.0 | 0.00 | 0.01 | 0.01 | 60 | 1002.2 |
| 20260504215513 | 62 | 213 | 13.0 | 20.0 | 0.00 | 0.01 | 0.01 | 59 | 1002.2 |
| 20260504215013 | 61 | 194 | 14.0 | 20.0 | 0.00 | 0.01 | 0.01 | 60 | 1002.3 |
| 20260504214513 | 62 | 226 | 13.0 | 20.0 | 0.00 | 0.01 | 0.01 | 59 | 1002.2 |
| 20260504213512 | 61 | 218 | 13.0 | 19.0 | 0.00 | 0.01 | 0.01 | 60 | 1002.2 |
| 20260504213011 | 60 | 216 | 13.0 | 20.0 | 0.00 | 0.01 | 0.01 | 61 | 1002.3 |
| 20260504212511 | 61 | 218 | 13.0 | 20.0 | 0.00 | 0.01 | 0.01 | 61 | 1002.3 |
| 20260504212005 | 60 | 206 | 13.0 | 19.0 | 0.00 | 0.01 | 0.01 | 61 | 1002.3 |
| 20260504211500 | 60 | 197 | 13.0 | 18.0 | 0.00 | 0.01 | 0.01 | 61 | 1002.3 |
| 20260504210953 | 60 | 220 | 14.0 | 19.0 | 0.00 | 0.01 | 0.01 | 61 | 1002.4 |
| 20260504210447 | 60 | 221 | 14.0 | 19.0 | 0.00 | 0.01 | 0.01 | 62 | 1002.5 |
| 20260504205942 | 60 | 207 | 14.0 | 22.0 | 0.00 | 0.01 | 0.01 | 62 | 1002.5 |
| 20260504205435 | 60 | 179 | 14.0 | 21.0 | 0.00 | 0.01 | 0.01 | 62 | 1002.6 |
| 20260504204929 | 60 | 211 | 14.0 | 22.0 | 0.00 | 0.01 | 0.01 | 62 | 1002.7 |
| 20260504204424 | 61 | 209 | 15.0 | 22.0 | 0.00 | 0.01 | 0.01 | 60 | 1002.7 |
| 20260504203416 | 59 | 207 | 14.0 | 20.0 | 0.00 | 0.01 | 0.01 | 64 | 1002.7 |
| 20260504202916 | 59 | 206 | 13.0 | 19.0 | 0.00 | 0.01 | 0.01 | 64 | 1002.7 |
| 20260504202416 | 58 | 213 | 12.0 | 19.0 | 0.00 | 0.01 | 0.01 | 65 | 1002.7 |
| 20260504201916 | 58 | 205 | 13.0 | 18.0 | 0.00 | 0.01 | 0.01 | 65 | 1002.9 |
| 20260504200916 | 60 | 220 | 14.0 | 22.0 | 0.00 | 0.01 | 0.01 | 61 | 1002.9 |
| 20260504200416 | 59 | 250 | 14.0 | 21.0 | 0.00 | 0.01 | 0.01 | 62 | 1003.0 |
| 20260504195915 | 59 | 190 | 14.0 | 22.0 | 0.00 | 0.01 | 0.01 | 61 | 1003.0 |
| 20260504195417 | 60 | 221 | 15.0 | 22.0 | 0.00 | 0.01 | 0.01 | 60 | 1003.1 |
| 20260504194916 | 62 | 205 | 15.0 | 22.0 | 0.00 | 0.01 | 0.01 | 56 | 1003.2 |
| 20260504194415 | 61 | 214 | 15.0 | 22.0 | 0.00 | 0.01 | 0.01 | 56 | 1003.2 |
| 20260504193415 | 62 | 0 | 14.0 | 23.0 | 0.00 | 0.01 | 0.01 | 55 | 1003.4 |